| time (UTC) | temp C | wind direction | speed KPH | gust KPH | rain 1hr cm | rain 24hr cm | rain mn cm | humidity % | barometer mb |
| 20260831224532 | 31 | 164 | 1.6 | 6.4 | 0.00 | 0.00 | 0.00 | 19 | 1012.0 |
| 20260831223104 | 31 | 139 | 1.6 | 6.4 | 0.00 | 0.00 | 0.00 | 20 | 1012.1 |
| 20260831220030 | 29 | 175 | 3.2 | 8.0 | 0.00 | 0.00 | 0.00 | 21 | 1012.5 |
| 20260831214530 | 29 | 177 | 3.2 | 8.0 | 0.00 | 0.00 | 0.00 | 22 | 1012.8 |
| 20260831213033 | 29 | 178 | 1.6 | 6.4 | 0.00 | 0.00 | 0.00 | 22 | 1013.0 |
| 20260831211532 | 29 | 176 | 3.2 | 9.7 | 0.00 | 0.00 | 0.00 | 22 | 1013.2 |
| 20260831210029 | 29 | 144 | 1.6 | 9.7 | 0.00 | 0.00 | 0.00 | 23 | 1013.4 |
| 20260831204528 | 30 | 152 | 3.2 | 9.7 | 0.00 | 0.00 | 0.00 | 23 | 1013.6 |
| 20260831203028 | 30 | 131 | 1.6 | 6.4 | 0.00 | 0.00 | 0.00 | 23 | 1013.9 |
| 20260831201534 | 30 | 135 | 0.0 | 8.0 | 0.00 | 0.00 | 0.00 | 23 | 1014.2 |
| 20260831200104 | 28 | 139 | 1.6 | 4.8 | 0.00 | 0.00 | 0.00 | 25 | 1014.4 |
| 20260831194531 | 27 | 165 | 1.6 | 8.0 | 0.00 | 0.00 | 0.00 | 26 | 1014.6 |
| 20260831193031 | 28 | 164 | 3.2 | 6.4 | 0.00 | 0.00 | 0.00 | 26 | 1014.8 |
| 20260831191532 | 28 | 155 | 1.6 | 9.7 | 0.00 | 0.00 | 0.00 | 27 | 1015.2 |
| 20260831184607 | 27 | 168 | 1.6 | 9.7 | 0.00 | 0.00 | 0.00 | 30 | 1015.9 |
| 20260831183033 | 26 | 111 | 0.0 | 3.2 | 0.00 | 0.00 | 0.00 | 32 | 1016.0 |
| 20260831181530 | 25 | 158 | 0.0 | 3.2 | 0.00 | 0.00 | 0.00 | 34 | 1016.3 |
| 20260831180030 | 25 | 65 | 0.0 | 4.8 | 0.00 | 0.00 | 0.00 | 36 | 1016.5 |
| 20260831174535 | 23 | 140 | 0.0 | 4.8 | 0.00 | 0.00 | 0.00 | 38 | 1016.6 |
| 20260831173146 | 23 | 61 | 0.0 | 0.0 | 0.00 | 0.00 | 0.00 | 42 | 1016.8 |
| 20260831171533 | 22 | 47 | 0.0 | 1.6 | 0.00 | 0.00 | 0.00 | 45 | 1016.9 |
| 20260831170032 | 21 | 45 | 0.0 | 1.6 | 0.00 | 0.00 | 0.00 | 47 | 1017.0 |
| 20260831164531 | 20 | 299 | 0.0 | 1.6 | 0.00 | 0.00 | 0.00 | 48 | 1017.2 |
| 20260831163030 | 19 | 247 | 0.0 | 0.0 | 0.00 | 0.00 | 0.00 | 50 | 1017.3 |
| 20260831161532 | 17 | 247 | 0.0 | 0.0 | 0.00 | 0.00 | 0.00 | 57 | 1017.5 |
| 20260831160029 | 15 | 247 | 0.0 | 0.0 | 0.00 | 0.00 | 0.00 | 61 | 1017.6 |
| 20260831153028 | 12 | 250 | 0.0 | 3.2 | 0.00 | 0.00 | 0.00 | 66 | 1017.8 |
| 20260831151531 | 11 | 225 | 3.2 | 4.8 | 0.00 | 0.00 | 0.00 | 70 | 1017.8 |
| 20260831150030 | 10 | 227 | 1.6 | 6.4 | 0.00 | 0.00 | 0.00 | 73 | 1017.6 |
| 20260831144605 | 9 | 225 | 1.6 | 4.8 | 0.00 | 0.00 | 0.00 | 76 | 1017.5 |
| 20260831143030 | 8 | 222 | 0.0 | 4.8 | 0.00 | 0.00 | 0.00 | 77 | 1017.3 |
| 20260831141532 | 8 | 224 | 3.2 | 4.8 | 0.00 | 0.00 | 0.00 | 77 | 1017.2 |
| 20260831140032 | 8 | 243 | 1.6 | 4.8 | 0.00 | 0.00 | 0.00 | 78 | 1017.2 |
| 20260831134532 | 8 | 225 | 0.0 | 3.2 | 0.00 | 0.00 | 0.00 | 78 | 1017.3 |
| 20260831131531 | 8 | 225 | 1.6 | 4.8 | 0.00 | 0.00 | 0.00 | 75 | 1017.2 |
| 20260831130029 | 8 | 227 | 3.2 | 6.4 | 0.00 | 0.00 | 0.00 | 74 | 1017.2 |
| 20260831124609 | 9 | 226 | 3.2 | 8.0 | 0.00 | 0.00 | 0.00 | 74 | 1017.2 |
| 20260831123028 | 9 | 227 | 3.2 | 6.4 | 0.00 | 0.00 | 0.00 | 73 | 1017.1 |
| 20260831121530 | 9 | 232 | 3.2 | 6.4 | 0.00 | 0.00 | 0.00 | 71 | 1017.2 |
| 20260831120144 | 10 | 234 | 3.2 | 6.4 | 0.00 | 0.00 | 0.00 | 70 | 1017.2 |
| 20260831114530 | 10 | 226 | 3.2 | 6.4 | 0.00 | 0.00 | 0.00 | 70 | 1017.2 |
| 20260831113030 | 10 | 226 | 3.2 | 6.4 | 0.00 | 0.00 | 0.00 | 71 | 1017.2 |
| 20260831111607 | 10 | 225 | 3.2 | 6.4 | 0.00 | 0.00 | 0.00 | 71 | 1017.1 |
| 20260831110031 | 10 | 228 | 3.2 | 6.4 | 0.00 | 0.00 | 0.00 | 71 | 1017.1 |
| 20260831104530 | 10 | 225 | 1.6 | 6.4 | 0.00 | 0.00 | 0.00 | 71 | 1017.1 |
| 20260831103106 | 10 | 225 | 1.6 | 4.8 | 0.00 | 0.00 | 0.00 | 71 | 1017.1 |
| 20260831101528 | 10 | 225 | 0.0 | 3.2 | 0.00 | 0.00 | 0.00 | 72 | 1017.3 |
| 20260831100028 | 10 | 225 | 0.0 | 1.6 | 0.00 | 0.00 | 0.00 | 69 | 1017.4 |
| 20260831094604 | 11 | 226 | 0.0 | 4.8 | 0.00 | 0.00 | 0.00 | 66 | 1017.5 |
| 20260831093030 | 11 | 228 | 3.2 | 6.4 | 0.00 | 0.00 | 0.00 | 66 | 1017.5 |
| 20260831084529 | 12 | 224 | 3.2 | 8.0 | 0.00 | 0.00 | 0.00 | 63 | 1017.9 |
| 20260831083107 | 12 | 225 | 3.2 | 6.4 | 0.00 | 0.00 | 0.00 | 62 | 1017.9 |
| 20260831074535 | 12 | 228 | 3.2 | 6.4 | 0.00 | 0.00 | 0.00 | 62 | 1017.9 |
| 20260831073030 | 12 | 226 | 1.6 | 6.4 | 0.00 | 0.00 | 0.00 | 61 | 1017.9 |
| 20260831070039 | 12 | 225 | 3.2 | 6.4 | 0.00 | 0.00 | 0.00 | 61 | 1018.0 |
| 20260831064529 | 13 | 225 | 1.6 | 4.8 | 0.00 | 0.00 | 0.00 | 60 | 1018.1 |
| 20260831063031 | 13 | 226 | 3.2 | 6.4 | 0.00 | 0.00 | 0.00 | 60 | 1018.2 |
| 20260831061531 | 13 | 226 | 1.6 | 4.8 | 0.00 | 0.00 | 0.00 | 60 | 1018.2 |
| 20260831060032 | 13 | 223 | 3.2 | 6.4 | 0.00 | 0.00 | 0.00 | 60 | 1018.2 |
| 20260831054648 | 14 | 225 | 1.6 | 4.8 | 0.00 | 0.00 | 0.00 | 57 | 1018.2 |
| 20260831053031 | 14 | 226 | 1.6 | 4.8 | 0.00 | 0.00 | 0.00 | 57 | 1018.3 |
| 20260831051532 | 14 | 225 | 1.6 | 4.8 | 0.00 | 0.00 | 0.00 | 60 | 1018.4 |
| 20260831050106 | 14 | 225 | 1.6 | 4.8 | 0.00 | 0.00 | 0.00 | 62 | 1018.4 |
| 20260831044528 | 15 | 225 | 0.0 | 3.2 | 0.00 | 0.00 | 0.00 | 60 | 1018.5 |
| 20260831043030 | 15 | 225 | 1.6 | 6.4 | 0.00 | 0.00 | 0.00 | 60 | 1018.5 |
| 20260831041602 | 14 | 14 | 0.0 | 4.8 | 0.00 | 0.00 | 0.00 | 64 | 1018.4 |
| 20260831040031 | 14 | 22 | 0.0 | 0.0 | 0.00 | 0.00 | 0.00 | 64 | 1018.3 |
| 20260831033029 | 16 | 22 | 0.0 | 0.0 | 0.00 | 0.00 | 0.00 | 55 | 1018.0 |
| 20260831030035 | 18 | 22 | 0.0 | 0.0 | 0.00 | 0.00 | 0.00 | 45 | 1017.9 |
| 20260831023031 | 21 | 22 | 0.0 | 4.8 | 0.00 | 0.00 | 0.00 | 39 | 1017.7 |
| 20260831021531 | 22 | 27 | 0.0 | 4.8 | 0.00 | 0.00 | 0.00 | 38 | 1017.6 |
| 20260831014529 | 23 | 19 | 1.6 | 6.4 | 0.00 | 0.00 | 0.00 | 33 | 1017.6 |
| 20260831013029 | 25 | 17 | 0.0 | 6.4 | 0.00 | 0.00 | 0.00 | 31 | 1017.6 |
| 20260831011529 | 26 | 35 | 0.0 | 6.4 | 0.00 | 0.00 | 0.00 | 30 | 1017.6 |
| 20260831010031 | 26 | 32 | 0.0 | 4.8 | 0.00 | 0.00 | 0.00 | 28 | 1017.8 |
| 20260831004530 | 27 | 28 | 0.0 | 8.0 | 0.00 | 0.00 | 0.00 | 27 | 1017.9 |
| 20260831003029 | 27 | 34 | 1.6 | 9.7 | 0.00 | 0.00 | 0.00 | 27 | 1017.9 |
| 20260831001529 | 27 | 34 | 0.0 | 6.4 | 0.00 | 0.00 | 0.00 | 27 | 1017.9 |
| 20260830234531 | 28 | 34 | 1.6 | 9.7 | 0.00 | 0.00 | 0.00 | 27 | 1018.1 |
| 20260830233031 | 27 | 39 | 1.6 | 8.0 | 0.00 | 0.00 | 0.00 | 27 | 1018.3 |